Location: Altleiningen
(49.5078°N, 8.0741°E)
Time: 04:35:38
(UTC+00:00)

Cosmos 1844 Rocket - Pass Details

Date: 03 March 2021
Orbit: 826 x 843 km, 71.0° (Epoch: 11 April)

Event Time Altitude Azimuth Distance (km) Brightness Sun altitude
Rises 18:21:20 0° 331° (NNW) 3,377 6.3 -11.7°
Reaches altitude 10° 18:23:47 10° 333° (NNW) 2,439 5.5 -12.1°
Maximum altitude 18:29:23 77° 60° (ENE) 854 2.6 -13.0°
Drops below altitude 10° 18:34:57 10° 147° (SSE) 2,425 4.7 -13.9°
Enters shadow 18:36:04 - 148° (SSE) 2,853 5.1 -14.1°
